Time,TemperatureF,DewpointF,PressureIn,WindDirection,WindDirectionDegrees,WindSpeedMPH,WindSpeedGustMPH,Humidity,HourlyPrecipIn,Conditions,Clouds,dailyrainin,SoftwareType,DateUTC
2013-06-26 00:00:00,68.3,67.0,29.78,NNW,329,0.0,-999.0,96,-99.99,,,0.00,weatherlink.com 1.10,2013-06-26 04:00:00,
2013-06-26 00:15:00,68.1,67.0,29.78,NNW,329,0.0,-999.0,97,-99.99,,,0.00,weatherlink.com 1.10,2013-06-26 04:15:00,
2013-06-26 00:30:00,68.0,67.0,29.77,NNW,329,0.0,-999.0,97,-99.99,,,0.00,weatherlink.com 1.10,2013-06-26 04:30:00,
2013-06-26 00:45:00,68.1,67.0,29.77,NNW,329,0.0,-999.0,97,-99.99,,,0.00,weatherlink.com 1.10,2013-06-26 04:45:00,
2013-06-26 01:00:00,68.1,67.0,29.77,NNW,329,0.0,-999.0,97,-99.99,,,0.00,weatherlink.com 1.10,2013-06-26 05:00:00,
2013-06-26 01:15:00,68.1,67.0,29.77,NNW,329,0.0,-999.0,97,-99.99,,,0.00,weatherlink.com 1.10,2013-06-26 05:15:00,
2013-06-26 01:30:00,68.0,67.0,29.76,NNW,329,0.0,-999.0,97,-99.99,,,0.00,weatherlink.com 1.10,2013-06-26 05:30:00,
2013-06-26 01:45:00,68.2,67.0,29.76,NNW,329,0.0,-999.0,97,-99.99,,,0.00,weatherlink.com 1.10,2013-06-26 05:45:00,
2013-06-26 02:00:00,68.1,67.0,29.76,NNW,329,0.0,-999.0,97,-99.99,,,0.00,weatherlink.com 1.10,2013-06-26 06:00:00,
2013-06-26 02:16:00,67.8,67.0,29.76,NNW,329,0.0,-999.0,97,-99.99,,,0.00,weatherlink.com 1.10,2013-06-26 06:16:00,
2013-06-26 02:31:00,67.5,67.0,29.75,NNW,329,0.0,-999.0,97,-99.99,,,0.00,weatherlink.com 1.10,2013-06-26 06:31:00,
2013-06-26 02:46:00,67.4,67.0,29.75,NNW,329,0.0,-999.0,97,-99.99,,,0.00,weatherlink.com 1.10,2013-06-26 06:46:00,
2013-06-26 03:01:00,67.0,66.0,29.75,NNW,329,0.0,-999.0,97,-99.99,,,0.00,weatherlink.com 1.10,2013-06-26 07:01:00,
2013-06-26 03:16:00,66.8,66.0,29.74,NNW,329,0.0,-999.0,97,-99.99,,,0.00,weatherlink.com 1.10,2013-06-26 07:16:00,
2013-06-26 03:31:00,66.6,66.0,29.75,NNW,329,0.0,-999.0,97,-99.99,,,0.00,weatherlink.com 1.10,2013-06-26 07:31:00,
2013-06-26 03:46:00,66.4,66.0,29.75,NW,313,0.0,-999.0,97,-99.99,,,0.00,weatherlink.com 1.10,2013-06-26 07:46:00,
2013-06-26 04:01:00,66.1,65.0,29.75,NW,313,0.0,-999.0,97,-99.99,,,0.00,weatherlink.com 1.10,2013-06-26 08:01:00,
2013-06-26 04:16:00,65.9,65.0,29.76,NW,313,0.0,-999.0,97,-99.99,,,0.00,weatherlink.com 1.10,2013-06-26 08:16:00,
2013-06-26 04:31:00,65.7,65.0,29.76,NW,313,0.0,-999.0,97,-99.99,,,0.00,weatherlink.com 1.10,2013-06-26 08:31:00,
2013-06-26 04:46:00,65.4,65.0,29.76,NW,313,0.0,-999.0,97,-99.99,,,0.00,weatherlink.com 1.10,2013-06-26 08:46:00,
2013-06-26 05:01:00,65.0,64.0,29.76,NW,313,0.0,-999.0,97,-99.99,,,0.00,weatherlink.com 1.10,2013-06-26 09:01:00,
2013-06-26 05:16:00,65.0,65.0,29.77,NW,313,0.0,-999.0,98,-99.99,,,0.00,weatherlink.com 1.10,2013-06-26 09:16:00,
2013-06-26 05:31:00,65.0,65.0,29.77,NW,313,0.0,-999.0,98,-99.99,,,0.00,weatherlink.com 1.10,2013-06-26 09:31:00,
2013-06-26 05:46:00,65.5,65.0,29.77,NW,313,0.0,-999.0,98,-99.99,,,0.00,weatherlink.com 1.10,2013-06-26 09:46:00,
2013-06-26 06:01:00,66.1,66.0,29.78,NW,313,0.0,-999.0,98,-99.99,,,0.00,weatherlink.com 1.10,2013-06-26 10:01:00,
2013-06-26 06:16:00,66.7,66.0,29.78,NW,313,0.0,-999.0,98,-99.99,,,0.00,weatherlink.com 1.10,2013-06-26 10:16:00,
2013-06-26 06:31:00,67.2,67.0,29.78,NW,313,0.0,-999.0,98,-99.99,,,0.00,weatherlink.com 1.10,2013-06-26 10:31:00,
2013-06-26 06:46:00,67.8,67.0,29.78,NW,313,0.0,-999.0,98,-99.99,,,0.00,weatherlink.com 1.10,2013-06-26 10:46:00,
2013-06-26 07:01:00,68.4,68.0,29.77,NW,313,0.0,-999.0,98,-99.99,,,0.00,weatherlink.com 1.10,2013-06-26 11:01:00,
2013-06-26 07:16:00,69.4,69.0,29.77,NW,313,0.0,-999.0,99,-99.99,,,0.00,weatherlink.com 1.10,2013-06-26 11:16:00,
2013-06-26 07:31:00,70.0,70.0,29.78,NW,313,0.0,-999.0,99,-99.99,,,0.00,weatherlink.com 1.10,2013-06-26 11:31:00,
2013-06-26 07:46:00,70.7,70.0,29.79,NW,313,0.0,-999.0,99,-99.99,,,0.00,weatherlink.com 1.10,2013-06-26 11:46:00,
2013-06-26 08:01:00,71.1,71.0,29.78,NW,313,0.0,-999.0,99,-99.99,,,0.00,weatherlink.com 1.10,2013-06-26 12:01:00,
2013-06-26 08:16:00,72.2,72.0,29.78,NW,313,0.0,-999.0,99,-99.99,,,0.00,weatherlink.com 1.10,2013-06-26 12:16:00,
2013-06-26 08:31:00,72.9,72.0,29.78,NE,44,1.0,-999.0,98,-99.99,,,0.01,weatherlink.com 1.10,2013-06-26 12:31:00,
2013-06-26 08:46:00,74.5,73.0,29.78,NNE,19,0.0,-999.0,95,-99.99,,,0.01,weatherlink.com 1.10,2013-06-26 12:46:00,
2013-06-26 09:01:00,75.8,73.0,29.78,ENE,64,0.0,-999.0,90,-99.99,,,0.01,weatherlink.com 1.10,2013-06-26 13:01:00,
2013-06-26 09:16:00,78.0,74.0,29.78,ESE,103,0.0,-999.0,86,-99.99,,,0.01,weatherlink.com 1.10,2013-06-26 13:16:00,
2013-06-26 09:31:00,78.3,73.0,29.79,ESE,106,0.0,-999.0,83,-99.99,,,0.01,weatherlink.com 1.10,2013-06-26 13:31:00,
2013-06-26 09:46:00,78.7,73.0,29.78,ESE,106,0.0,-999.0,82,-99.99,,,0.01,weatherlink.com 1.10,2013-06-26 13:46:00,
2013-06-26 10:01:00,78.9,74.0,29.78,ESE,105,0.0,-999.0,84,-99.99,,,0.01,weatherlink.com 1.10,2013-06-26 14:01:00,
2013-06-26 10:16:00,79.3,73.0,29.79,ESE,105,0.0,-999.0,81,-99.99,,,0.01,weatherlink.com 1.10,2013-06-26 14:16:00,
2013-06-26 10:31:00,81.8,73.0,29.79,East,84,2.0,-999.0,74,-99.99,,,0.01,weatherlink.com 1.10,2013-06-26 14:31:00,
2013-06-26 10:47:00,82.7,73.0,29.79,ESE,106,0.0,-999.0,73,-99.99,,,0.01,weatherlink.com 1.10,2013-06-26 14:47:00,
2013-06-26 11:02:00,81.8,73.0,29.79,ESE,106,0.0,-999.0,75,-99.99,,,0.01,weatherlink.com 1.10,2013-06-26 15:02:00,
2013-06-26 11:17:00,80.9,73.0,29.79,ESE,106,0.0,-999.0,76,-99.99,,,0.01,weatherlink.com 1.10,2013-06-26 15:17:00,
2013-06-26 11:32:00,80.1,73.0,29.79,ESE,106,0.0,-999.0,79,-99.99,,,0.01,weatherlink.com 1.10,2013-06-26 15:32:00,
2013-06-26 11:47:00,79.3,73.0,29.79,ESE,106,1.0,-999.0,82,-99.99,,,0.01,weatherlink.com 1.10,2013-06-26 15:47:00,
2013-06-26 12:02:00,78.2,72.0,29.79,ESE,106,0.0,-999.0,80,-99.99,,,0.01,weatherlink.com 1.10,2013-06-26 16:02:00,
2013-06-26 12:17:00,76.5,71.0,29.80,ESE,106,0.0,-999.0,83,-99.99,,,0.01,weatherlink.com 1.10,2013-06-26 16:17:00,
2013-06-26 12:32:00,76.0,72.0,29.80,ESE,106,0.0,-999.0,86,-99.99,,,0.01,weatherlink.com 1.10,2013-06-26 16:32:00,
2013-06-26 12:47:00,76.6,72.0,29.80,ESE,106,0.0,-999.0,85,-99.99,,,0.01,weatherlink.com 1.10,2013-06-26 16:47:00,
2013-06-26 13:02:00,77.3,72.0,29.79,ESE,106,0.0,-999.0,83,-99.99,,,0.01,weatherlink.com 1.10,2013-06-26 17:02:00,
2013-06-26 13:17:00,76.7,72.0,29.79,ESE,106,0.0,-999.0,84,-99.99,,,0.01,weatherlink.com 1.10,2013-06-26 17:17:00,
2013-06-26 13:32:00,78.5,74.0,29.79,ESE,106,0.0,-999.0,86,-99.99,,,0.01,weatherlink.com 1.10,2013-06-26 17:32:00,
2013-06-26 13:47:00,79.3,73.0,29.78,ESE,117,0.0,-999.0,81,-99.99,,,0.01,weatherlink.com 1.10,2013-06-26 17:47:00,
2013-06-26 14:02:00,79.1,74.0,29.78,ESE,117,0.0,-999.0,83,-99.99,,,0.01,weatherlink.com 1.10,2013-06-26 18:02:00,
2013-06-26 14:17:00,81.3,73.0,29.78,ESE,119,0.0,-999.0,76,-99.99,,,0.01,weatherlink.com 1.10,2013-06-26 18:17:00,
2013-06-26 14:32:00,80.6,73.0,29.79,ESE,119,0.0,-999.0,78,-99.99,,,0.01,weatherlink.com 1.10,2013-06-26 18:32:00,
2013-06-26 14:47:00,79.3,74.0,29.79,ESE,119,0.0,-999.0,83,-99.99,,,0.01,weatherlink.com 1.10,2013-06-26 18:47:00,
2013-06-26 15:02:00,78.7,72.0,29.78,ESE,119,0.0,-999.0,81,-99.99,,,0.01,weatherlink.com 1.10,2013-06-26 19:02:00,
2013-06-26 15:17:00,79.8,72.0,29.78,ESE,119,0.0,-999.0,77,-99.99,,,0.01,weatherlink.com 1.10,2013-06-26 19:17:00,
2013-06-26 15:32:00,78.7,72.0,29.79,SE,125,0.0,-999.0,79,-99.99,,,0.01,weatherlink.com 1.10,2013-06-26 19:32:00,
2013-06-26 15:47:00,78.2,72.0,29.79,SE,125,0.0,-999.0,82,-99.99,,,0.01,weatherlink.com 1.10,2013-06-26 19:47:00,
2013-06-26 16:02:00,77.7,73.0,29.79,SE,125,0.0,-999.0,84,-99.99,,,0.01,weatherlink.com 1.10,2013-06-26 20:02:00,
2013-06-26 16:17:00,77.5,72.0,29.79,SE,125,0.0,-999.0,84,-99.99,,,0.01,weatherlink.com 1.10,2013-06-26 20:17:00,
2013-06-26 16:32:00,77.2,72.0,29.79,SE,125,0.0,-999.0,84,-99.99,,,0.01,weatherlink.com 1.10,2013-06-26 20:32:00,
2013-06-26 16:47:00,76.5,72.0,29.79,SE,125,0.0,-999.0,86,-99.99,,,0.01,weatherlink.com 1.10,2013-06-26 20:47:00,
2013-06-26 17:02:00,75.9,72.0,29.80,SE,125,0.0,-999.0,87,-99.99,,,0.02,weatherlink.com 1.10,2013-06-26 21:02:00,
2013-06-26 17:17:00,74.1,71.0,29.81,SE,125,0.0,-999.0,90,-99.99,,,0.14,weatherlink.com 1.10,2013-06-26 21:17:00,
2013-06-26 17:32:00,73.4,71.0,29.81,SE,125,0.0,-999.0,93,-99.99,,,0.15,weatherlink.com 1.10,2013-06-26 21:32:00,
2013-06-26 17:47:00,73.1,71.0,29.81,SE,125,0.0,-999.0,94,-99.99,,,0.15,weatherlink.com 1.10,2013-06-26 21:47:00,
2013-06-26 18:02:00,72.2,70.0,29.81,SE,125,0.0,-999.0,94,-99.99,,,0.15,weatherlink.com 1.10,2013-06-26 22:02:00,
2013-06-26 18:17:00,71.6,70.0,29.81,SE,125,0.0,-999.0,95,-99.99,,,0.15,weatherlink.com 1.10,2013-06-26 22:17:00,
2013-06-26 18:32:00,71.8,71.0,29.82,SE,125,0.0,-999.0,96,-99.99,,,0.15,weatherlink.com 1.10,2013-06-26 22:32:00,
2013-06-26 18:47:00,71.8,70.0,29.82,SE,125,0.0,-999.0,95,-99.99,,,0.15,weatherlink.com 1.10,2013-06-26 22:47:00,
2013-06-26 19:02:00,71.7,70.0,29.81,SE,125,0.0,-999.0,94,-99.99,,,0.15,weatherlink.com 1.10,2013-06-26 23:02:00,
2013-06-26 19:17:00,71.4,70.0,29.81,SE,125,0.0,-999.0,94,-99.99,,,0.15,weatherlink.com 1.10,2013-06-26 23:17:00,
2013-06-26 19:32:00,71.3,70.0,29.82,SE,125,0.0,-999.0,94,-99.99,,,0.15,weatherlink.com 1.10,2013-06-26 23:32:00,
2013-06-26 19:47:00,70.8,69.0,29.82,SE,125,0.0,-999.0,95,-99.99,,,0.15,weatherlink.com 1.10,2013-06-26 23:47:00,
2013-06-26 20:02:00,70.4,69.0,29.83,SE,125,0.0,-999.0,95,-99.99,,,0.15,weatherlink.com 1.10,2013-06-27 00:02:00,
2013-06-26 20:17:00,70.1,69.0,29.84,SE,125,0.0,-999.0,95,-99.99,,,0.15,weatherlink.com 1.10,2013-06-27 00:17:00,
2013-06-26 20:32:00,69.6,68.0,29.84,SE,125,0.0,-999.0,95,-99.99,,,0.15,weatherlink.com 1.10,2013-06-27 00:32:00,
2013-06-26 20:47:00,69.2,68.0,29.84,SE,125,0.0,-999.0,96,-99.99,,,0.15,weatherlink.com 1.10,2013-06-27 00:47:00,
2013-06-26 21:02:00,68.7,68.0,29.85,SE,125,0.0,-999.0,96,-99.99,,,0.15,weatherlink.com 1.10,2013-06-27 01:02:00,
2013-06-26 21:17:00,68.4,67.0,29.85,SE,125,0.0,-999.0,96,-99.99,,,0.15,weatherlink.com 1.10,2013-06-27 01:17:00,
2013-06-26 21:32:00,68.5,68.0,29.86,SE,125,0.0,-999.0,97,-99.99,,,0.15,weatherlink.com 1.10,2013-06-27 01:32:00,
2013-06-26 21:47:00,68.4,68.0,29.86,SE,125,0.0,-999.0,97,-99.99,,,0.15,weatherlink.com 1.10,2013-06-27 01:47:00,
2013-06-26 22:02:00,68.1,67.0,29.87,SE,125,0.0,-999.0,96,-99.99,,,0.15,weatherlink.com 1.10,2013-06-27 02:02:00,
2013-06-26 22:17:00,67.6,67.0,29.87,SE,125,0.0,-999.0,96,-99.99,,,0.15,weatherlink.com 1.10,2013-06-27 02:17:00,
2013-06-26 22:32:00,67.3,67.0,29.87,SE,125,0.0,-999.0,97,-99.99,,,0.15,weatherlink.com 1.10,2013-06-27 02:32:00,
2013-06-26 22:47:00,67.3,67.0,29.87,SE,125,0.0,-999.0,97,-99.99,,,0.15,weatherlink.com 1.10,2013-06-27 02:47:00,
2013-06-26 23:02:00,67.1,66.0,29.87,SE,125,0.0,-999.0,97,-99.99,,,0.15,weatherlink.com 1.10,2013-06-27 03:02:00,
2013-06-26 23:17:00,66.6,66.0,29.86,SE,125,0.0,-999.0,97,-99.99,,,0.15,weatherlink.com 1.10,2013-06-27 03:17:00,
2013-06-26 23:32:00,66.5,66.0,29.87,SE,125,0.0,-999.0,97,-99.99,,,0.15,weatherlink.com 1.10,2013-06-27 03:32:00,
2013-06-26 23:47:00,67.1,67.0,29.87,SE,125,0.0,-999.0,98,-99.99,,,0.15,weatherlink.com 1.10,2013-06-27 03:47:00,